Wind_Speed
12 11 10 10 10 8 7 7 6 5 4 3 2 1 0 1 2 3 3 3 3 4 5 5 5 6 6 6 6 5 5 4 4 4 4 3 3 2 2 2 2 2 0 1
13 13 13 13 12 11 9 8 7 7 6 5 4 4 3 2 1 0 1 1 1 2 3 3 4 4 5 4 5 4 3 3 3 3 3 3 2 1 1 1 2 2 2 1
15 15 15 15 14 13 11 10 9 9 8 7 6 5 5 4 4 3 2 2 1 1 1 2 2 3 3 3 3 3 2 2 2 2 2 3 2 3 2 2 3 3 3 2
18 17 17 16 15 14 12 11 10 10 9 9 7 7 7 6 6 5 4 4 3 2 2 2 2 2 2 2 2 2 2 2 3 3 3 3 3 2 2 3 4 4 3 3
19 18 18 17 16 15 14 13 12 11 10 10 9 9 9 9 8 7 6 6 5 5 4 4 4 3 3 3 2 2 2 3 3 3 3 3 3 3 4 4 5 4 4 4
20 19 19 18 17 16 16 15 14 12 12 12 11 10 10 10 9 8 8 7 7 7 6 6 6 6 5 4 4 4 4 4 4 4 4 4 4 5 5 5 5 5 5 5
20 19 19 19 19 18 17 15 14 14 14 13 13 12 11 11 10 10 10 10 9 9 9 8 8 8 7 7 6 6 5 5 5 5 5 6 6 6 7 6 6 6 6 6
21 20 20 19 20 20 18 17 16 15 14 13 14 14 13 11 11 10 10 11 11 11 10 10 10 10 10 9 8 7 7 7 7 7 6 6 7 7 7 7 6 6 7 7
22 22 21 20 20 20 19 19 17 16 16 15 16 15 14 13 13 12 11 11 12 11 12 12 12 11 11 11 10 9 9 8 8 8 7 7 7 8 8 8 8 7 7 8
25 23 23 22 21 21 20 20 19 19 18 16 16 16 14 14 14 13 12 12 12 12 12 13 13 12 12 12 12 11 11 9 9 9 8 8 8 9 9 8 8 8 9 10
27 25 24 24 23 22 22 22 21 21 20 18 17 17 17 16 15 13 13 12 13 13 13 13 13 13 13 13 13 13 13 11 11 10 11 10 10 10 9 10 10 10 11 12
28 26 25 25 25 24 24 23 22 22 23 22 20 19 18 17 17 15 15 14 14 14 14 14 14 13 13 14 14 14 13 13 12 12 13 12 12 12 12 12 11 11 12 13
28 27 26 26 27 26 26 25 24 23 23 23 21 20 20 19 18 17 17 16 15 15 15 14 14 14 14 14 15 15 14 14 14 14 13 14 14 15 15 14 14 14 14 14
29 28 27 26 25 27 28 27 26 24 24 23 22 21 21 20 19 19 18 18 17 16 15 15 15 15 15 15 16 16 15 15 15 15 14 15 16 16 16 15 16 15 15 15
29 28 29 28 27 27 28 27 27 26 25 23 22 22 21 20 19 19 18 18 18 16 16 16 16 16 16 16 17 17 17 16 16 16 16 16 17 17 17 17 16 16 17 17
30 29 28 28 27 28 28 27 28 28 26 25 24 24 23 22 21 20 20 20 20 19 18 18 18 18 18 17 18 18 18 18 18 18 18 18 18 18 18 18 17 17 18 18
30 29 28 27 28 28 28 27 27 27 27 26 26 25 24 24 23 22 21 21 21 21 21 20 20 19 19 19 19 19 19 19 19 19 19 19 19 20 20 20 19 20 20 19
30 29 28 27 28 28 28 28 27 28 27 27 27 26 26 26 25 24 23 23 22 22 22 21 21 20 20 20 20 20 20 20 20 20 20 20 21 21 21 21 21 20 20 20
29 29 28 28 28 28 29 28 28 28 27 27 27 27 26 25 25 25 25 24 23 24 23 22 21 21 21 20 21 21 21 21 22 22 22 22 21 21 22 22 22 21 22 22
28 29 28 28 27 28 28 28 27 28 29 27 27 27 26 25 25 25 25 24 23 23 23 22 22 22 22 21 21 22 22 22 22 22 22 23 22 23 23 23 23 23 23 23
27 27 27 27 27 27 28 27 27 28 28 27 27 26 26 26 25 25 25 24 23 23 24 24 23 23 23 23 23 23 23 23 23 23 23 23 23 24 25 25 24 24 24 24
26 26 26 26 26 27 26 27 27 28 27 26 26 26 26 26 26 26 26 25 24 23 24 24 24 23 23 24 24 24 24 24 25 25 24 24 25 25 25 24 24 25 25 26
25 26 26 26 25 24 25 25 26 26 26 25 25 25 25 26 26 26 26 25 26 25 24 24 24 24 24 24 24 24 24 25 25 25 25 25 25 25 25 26 26 26 26 26
24 24 25 25 24 23 23 23 24 24 24 24 24 24 24 25 25 25 25 24 24 24 25 25 25 25 24 25 25 26 25 25 26 26 26 26 27 27 27 27 28 28 27 27
24 23 24 25 24 24 24 24 23 22 23 23 23 23 25 25 25 25 25 26 26 26 27 27 26 26 25 25 26 26 26 26 27 26 26 26 27 27 28 28 28 28 29 29
24 24 24 24 23 23 24 23 22 22 22 23 24 24 25 25 25 26 26 26 26 27 27 27 28 27 27 26 27 26 26 26 26 27 27 27 27 28 28 29 29 30 30 31
Wind_Direction
225 223 222 224 222 218 220 215 218 228 235 230 224 230 246 27 52 62 61 62 62 61 57 53 53 54 55 57 58 60 67 70 72 71 73 80 90 93 73 63 56 27 150 199
227 227 227 228 230 226 225 224 224 226 230 234 237 246 255 268 270 348 359 21 42 56 46 44 45 46 46 47 48 52 62 62 59 52 53 56 51 48 25 342 349 350 334 300
228 228 226 227 229 231 231 231 229 228 231 235 242 252 257 259 267 270 270 287 329 353 358 9 19 22 27 30 33 38 45 35 23 20 24 22 15 8 10 354 341 332 327 320
228 228 227 227 229 228 233 234 232 231 232 240 246 250 256 256 257 259 263 266 281 300 308 315 328 341 344 348 356 5 9 1 352 347 354 1 5 4 358 345 334 325 316 310
230 229 229 227 227 226 229 233 232 233 236 240 246 249 254 257 253 257 264 263 262 278 285 287 290 294 306 315 322 326 327 336 342 340 346 338 337 341 337 332 332 319 312 312
230 229 230 228 226 227 229 231 234 237 239 245 246 247 250 253 253 256 259 262 264 271 277 281 279 277 284 288 293 302 305 311 317 319 323 324 316 320 328 324 323 316 312 310
229 231 230 227 227 228 229 229 235 241 243 247 250 246 246 250 253 255 256 258 264 271 273 275 275 272 273 277 282 293 299 299 307 309 310 312 316 320 325 322 317 314 302 297
229 231 232 229 228 232 231 229 231 239 244 249 254 251 251 252 254 255 256 256 259 266 271 271 271 271 271 274 277 283 294 297 298 301 305 307 309 314 317 318 314 312 304 302
230 234 233 232 231 232 233 233 234 239 243 244 251 255 254 251 252 252 253 255 258 263 266 266 268 270 271 271 270 274 286 290 289 294 297 302 303 308 310 313 312 307 312 310
230 233 234 233 234 235 235 236 237 238 242 245 251 253 252 253 251 251 253 255 258 263 264 264 267 270 271 269 266 269 280 286 285 289 294 298 301 302 303 306 308 312 311 310
229 232 236 235 235 237 236 237 239 241 242 243 249 253 252 252 250 252 254 256 260 261 261 264 267 268 269 268 267 270 275 282 283 284 288 293 297 297 294 295 299 302 304 304
229 231 235 237 236 236 238 239 240 241 243 242 243 250 252 251 251 254 257 259 260 259 261 263 263 265 269 269 269 271 272 277 280 281 284 288 291 291 290 293 295 298 300 302
229 230 233 237 239 238 238 239 239 239 244 244 244 248 252 250 250 251 255 260 261 260 259 261 263 265 267 270 271 271 272 275 277 280 282 283 285 287 288 287 289 292 295 299
232 231 231 233 236 240 240 239 239 240 242 245 247 247 249 250 250 250 254 257 260 260 256 256 260 263 266 270 271 270 272 273 274 277 282 283 284 285 285 285 287 289 292 294
232 234 234 233 236 238 241 241 240 241 242 243 247 248 247 249 251 251 253 256 257 258 256 256 259 263 266 269 269 266 268 270 272 275 279 279 281 282 282 284 283 287 289 290
231 234 236 236 237 239 241 242 242 242 243 244 246 247 249 250 252 252 252 253 254 255 257 259 261 263 268 271 269 266 266 269 272 273 276 276 277 279 280 281 281 282 284 287
232 234 235 238 238 240 242 241 240 242 244 246 247 248 249 250 253 253 252 253 254 255 258 260 259 262 266 268 266 263 264 268 271 272 275 276 276 279 279 280 281 283 283 284
231 233 235 238 239 240 241 241 242 243 244 245 247 249 249 250 251 251 251 251 251 253 255 258 257 260 264 266 264 264 264 265 269 272 275 274 275 276 277 278 280 282 284 284
231 232 234 238 242 243 242 242 242 244 246 246 247 247 248 249 250 250 251 251 251 252 256 258 258 260 263 266 266 265 264 266 269 272 274 274 274 274 276 279 280 281 282 283
231 233 234 237 240 243 245 245 245 247 248 247 248 248 247 247 248 249 249 250 250 251 254 257 257 259 263 265 266 265 264 266 269 272 273 272 273 273 274 276 278 279 281 283
230 232 233 236 240 243 245 247 247 247 248 248 248 249 247 246 245 246 247 248 248 250 253 256 257 260 262 264 265 264 265 267 268 271 271 271 272 273 275 276 276 278 283 285
229 231 233 235 239 245 246 247 247 248 249 247 246 247 247 245 244 245 247 247 247 250 252 253 257 260 261 263 264 265 267 268 268 268 268 269 272 274 277 277 277 279 283 285
230 229 231 234 239 244 246 248 247 247 246 246 245 245 246 247 245 246 247 248 248 250 252 253 257 259 260 263 264 265 267 268 269 268 267 268 270 273 276 278 280 281 283 284
232 233 235 237 239 241 243 246 246 246 245 245 244 245 246 247 247 248 248 250 250 250 252 254 256 258 261 262 263 264 266 268 270 269 268 268 270 272 276 279 280 281 282 283
233 235 236 238 239 241 243 244 245 245 246 246 244 245 247 248 248 248 249 249 250 251 253 253 255 257 261 263 264 264 265 267 270 270 270 270 270 271 275 278 280 281 282 284
232 235 237 238 239 240 240 242 244 245 246 247 246 247 249 250 249 249 249 250 250 251 254 256 257 259 262 264 265 264 265 267 269 268 269 270 271 274 277 278 280 281 283 284
Height
5901 5904 5905 5906 5908 5909 5910 5910 5911 5912 5911 5912 5912 5912 5911 5911 5910 5910 5909 5908 5908 5907 5906 5905 5904 5903 5902 5901 5900 5900 5899 5898 5898 5897 5897 5896 5896 5895 5894 5894 5893 5893 5892 5892
5900 5901 5903 5904 5905 5906 5907 5909 5910 5910 5910 5911 5911 5911 5911 5911 5910 5910 5909 5909 5908 5908 5907 5906 5905 5904 5903 5902 5901 5901 5900 5899 5898 5898 5897 5897 5896 5896 5895 5894 5893 5893 5892 5891
5896 5899 5900 5901 5902 5904 5905 5907 5908 5908 5909 5909 5910 5911 5911 5910 5910 5909 5909 5908 5908 5908 5907 5906 5905 5904 5904 5903 5902 5901 5900 5900 5899 5898 5898 5897 5896 5896 5895 5894 5894 5893 5892 5891
5892 5895 5896 5898 5899 5901 5903 5904 5905 5906 5907 5908 5909 5910 5910 5909 5909 5909 5908 5908 5908 5907 5907 5906 5906 5905 5904 5903 5902 5901 5901 5900 5899 5898 5897 5897 5896 5896 5895 5894 5893 5892 5892 5891
5889 5891 5892 5894 5896 5898 5900 5901 5902 5904 5905 5907 5907 5908 5909 5907 5907 5908 5908 5907 5907 5907 5906 5906 5905 5905 5904 5903 5902 5902 5901 5900 5899 5898 5897 5896 5896 5895 5895 5894 5893 5892 5891 5890
5885 5886 5888 5891 5893 5895 5896 5898 5899 5901 5903 5905 5905 5906 5907 5906 5906 5906 5906 5906 5906 5906 5905 5905 5904 5904 5903 5903 5902 5901 5901 5900 5899 5898 5897 5896 5895 5895 5894 5893 5892 5891 5890 5889
5880 5882 5884 5886 5889 5890 5893 5896 5898 5899 5901 5902 5902 5902 5904 5903 5903 5904 5904 5904 5904 5904 5903 5903 5903 5903 5902 5901 5900 5900 5899 5899 5898 5897 5896 5895 5895 5894 5893 5892 5891 5890 5889 5888
5876 5879 5880 5882 5885 5887 5889 5892 5896 5898 5899 5900 5898 5899 5900 5900 5900 5901 5901 5902 5902 5902 5901 5901 5901 5901 5901 5900 5900 5899 5898 5898 5897 5896 5895 5894 5894 5893 5892 5891 5890 5888 5887 5887
5872 5875 5876 5878 5880 5883 5885 5887 5891 5893 5894 5896 5896 5896 5896 5897 5898 5898 5899 5899 5899 5899 5899 5898 5898 5898 5898 5898 5898 5898 5897 5897 5896 5895 5894 5893 5892 5892 5890 5889 5888 5887 5886 5885
5866 5869 5871 5873 5876 5878 5881 5883 5885 5887 5889 5891 5893 5893 5894 5893 5894 5895 5896 5896 5896 5896 5896 5896 5896 5896 5895 5895 5895 5895 5895 5895 5894 5894 5893 5892 5891 5890 5889 5888 5887 5886 5885 5884
5860 5864 5866 5868 5871 5873 5876 5878 5880 5882 5884 5887 5889 5892 5889 5889 5890 5891 5892 5892 5893 5893 5893 5893 5893 5893 5893 5893 5893 5893 5893 5892 5892 5891 5891 5890 5889 5888 5887 5886 5885 5884 5883 5882
5854 5858 5860 5863 5865 5867 5870 5872 5875 5878 5878 5880 5884 5888 5884 5885 5886 5887 5888 5889 5889 5889 5889 5889 5889 5890 5890 5890 5890 5890 5890 5889 5889 5888 5888 5887 5886 5886 5885 5884 5883 5882 5881 5879
5847 5851 5855 5857 5860 5862 5863 5866 5868 5871 5873 5875 5878 5883 5880 5880 5881 5883 5884 5884 5885 5885 5885 5886 5886 5886 5886 5886 5887 5886 5886 5886 5886 5885 5885 5884 5883 5883 5882 5881 5880 5879 5878 5876
5840 5844 5849 5853 5854 5855 5857 5859 5862 5865 5867 5869 5872 5874 5875 5875 5876 5878 5879 5880 5880 5881 5881 5882 5882 5882 5882 5883 5882 5882 5882 5882 5882 5881 5881 5880 5880 5879 5878 5877 5876 5875 5874 5873
5833 5837 5840 5844 5846 5848 5850 5853 5856 5858 5861 5864 5866 5867 5869 5870 5871 5872 5874 5875 5876 5876 5877 5878 5878 5878 5878 5878 5878 5878 5878 5878 5878 5877 5877 5876 5876 5875 5874 5873 5872 5871 5870 5869
5826 5830 5833 5837 5839 5841 5844 5847 5849 5852 5854 5857 5859 5861 5862 5863 5865 5867 5868 5869 5870 5871 5872 5872 5873 5873 5873 5873 5873 5873 5873 5873 5873 5873 5872 5872 5871 5871 5870 5869 5868 5867 5866 5864
5819 5823 5827 5830 5832 5834 5837 5840 5842 5845 5847 5850 5852 5855 5856 5857 5859 5860 5861 5862 5864 5865 5866 5867 5867 5868 5868 5868 5868 5868 5868 5868 5868 5868 5867 5867 5866 5866 5865 5864 5863 5862 5861 5859
5813 5816 5819 5823 5826 5828 5833 5833 5835 5838 5840 5842 5845 5847 5848 5850 5852 5853 5854 5855 5857 5858 5860 5861 5861 5862 5863 5863 5863 5863 5863 5863 5863 5862 5862 5861 5861 5860 5859 5859 5858 5856 5855 5854
5806 5809 5813 5816 5818 5821 5824 5825 5828 5831 5833 5835 5837 5839 5841 5843 5845 5846 5847 5849 5850 5852 5853 5855 5855 5856 5857 5857 5857 5857 5857 5857 5857 5857 5857 5856 5855 5854 5854 5853 5852 5851 5850 5848
5799 5802 5806 5808 5811 5814 5817 5818 5821 5824 5826 5828 5830 5832 5834 5836 5838 5839 5840 5842 5844 5845 5847 5848 5849 5850 5850 5851 5851 5851 5851 5851 5851 5851 5851 5850 5849 5848 5848 5847 5846 5845 5843 5842
5792 5795 5798 5801 5804 5806 5809 5811 5814 5817 5819 5820 5822 5824 5826 5828 5831 5833 5834 5836 5838 5839 5840 5842 5842 5843 5844 5844 5844 5844 5844 5845 5845 5844 5844 5844 5843 5842 5841 5840 5839 5838 5837 5836
5785 5788 5791 5794 5797 5801 5801 5804 5806 5808 5810 5812 5815 5817 5819 5821 5823 5825 5827 5829 5831 5832 5833 5834 5835 5836 5837 5837 5837 5837 5838 5838 5838 5838 5837 5837 5836 5836 5835 5833 5832 5831 5830 5829
5779 5782 5785 5788 5792 5792 5794 5796 5798 5800 5803 5805 5807 5809 5811 5813 5815 5818 5820 5822 5823 5825 5826 5827 5828 5829 5830 5830 5830 5830 5831 5831 5831 5831 5830 5830 5829 5828 5827 5826 5825 5824 5823 5821
5772 5775 5778 5781 5784 5785 5787 5789 5791 5793 5796 5798 5800 5802 5804 5806 5808 5810 5812 5814 5816 5817 5819 5820 5821 5821 5822 5823 5823 5823 5823 5823 5823 5823 5823 5822 5822 5821 5820 5819 5818 5816 5815 5813
5767 5770 5772 5774 5777 5779 5781 5783 5785 5787 5789 5791 5793 5795 5796 5798 5800 5802 5804 5806 5808 5810 5811 5812 5813 5814 5814 5815 5815 5815 5815 5815 5815 5815 5814 5814 5814 5813 5812 5811 5810 5808 5807 5805
5761 5764 5766 5769 5771 5773 5775 5777 5779 5781 5783 5784 5786 5788 5789 5791 5792 5794 5796 5798 5799 5801 5803 5804 5805 5806 5806 5807 5807 5807 5807 5807 5807 5807 5807 5806 5806 5805 5804 5803 5801 5800 5798 5797